Location: Newark
(41.5333°N, 14.5500°E)
Time: 13:39:33
(UTC+00:00)

Envisat - Pass Details

Date: 03 February 2020
Orbit: 764 x 766 km, 98.1° (Epoch: 24 February)

Event Time Altitude Azimuth Distance (km) Brightness Sun altitude
Rises 16:52:07 0° 168° (SSE) 3,218 6.3 -6.6°
Reaches altitude 10° 16:54:24 10° 169° (S) 2,296 5.5 -7.0°
Maximum altitude 16:59:29 82° 257° (WSW) 778 3.2 -7.9°
Drops below altitude 10° 17:04:35 10° 345° (NNW) 2,311 5.5 -8.9°
Sets 17:06:54 0° 347° (NNW) 3,241 6.2 -9.3°
